Location: Unspecified
(47.9110°N, 14.3980°E)
Time: 10:39:00
(UTC+00:00)

Cosmos 2221 Rocket - Pass Details

Date: 06 August 2020
Orbit: 621 x 647 km, 82.5° (Epoch: 20 September)

Event Time Altitude Azimuth Distance (km) Brightness Sun altitude
Rises 21:55:51 0° 351° (N) 2,925 8.4 -23.7°
Reaches altitude 10° 21:58:05 10° 353° (N) 2,017 7.2 -23.8°
Maximum altitude 22:02:34 78° 80° (E) 652 3.5 -24.1°
Enters shadow 22:02:35 78° 83° (E) 652 3.5 -24.1°
